N6LED-13 Weather Reports


time (UTC)temp
C
wind
direction
speed
KPH
gust
KPH
rain 1hr
cm
rain 24hr
cm
rain mn
cm
humidity
%
barometer
mb
20260506134559 10 308 1.6 6.4 0.00 0.00 0.00 91 1019.2
20260506134018 10 294 1.6 6.4 0.00 0.00 0.00 91 1019.1
20260506133519 10 301 1.6 6.4 0.00 0.00 0.00 91 1019.1
20260506133018 10 298 0.0 3.2 0.00 0.00 0.00 91 1019.1
20260506132516 10 311 1.6 3.2 0.00 0.00 0.00 91 1019.0
20260506132019 10 292 1.6 3.2 0.00 0.00 0.00 91 1019.0
20260506131516 10 319 0.0 3.2 0.00 0.00 0.00 91 1019.0
20260506131016 10 323 0.0 1.6 0.00 0.00 0.00 91 1018.9
20260506130518 10 342 0.0 1.6 0.00 0.00 0.00 91 1018.9
20260506130018 10 310 0.0 1.6 0.00 0.00 0.00 91 1018.8
20260506125516 10 322 0.0 1.6 0.00 0.00 0.00 91 1018.8
20260506125016 10 302 0.0 3.2 0.00 0.00 0.00 91 1018.7
20260506124556 10 310 0.0 4.8 0.00 0.00 0.00 91 1018.7
20260506124016 10 324 0.0 3.2 0.00 0.00 0.00 91 1018.6
20260506123516 10 301 1.6 6.4 0.00 0.00 0.00 91 1018.6
20260506123016 10 353 0.0 6.4 0.00 0.00 0.00 91 1018.6
20260506122516 10 326 1.6 6.4 0.00 0.00 0.00 91 1018.5
20260506122036 10 307 1.6 6.4 0.00 0.00 0.00 91 1018.5
20260506121517 10 314 1.6 6.4 0.00 0.00 0.00 91 1018.4
20260506121016 10 313 1.6 6.4 0.00 0.00 0.00 91 1018.4
20260506120537 10 321 1.6 3.2 0.00 0.00 0.00 91 1018.4
20260506120037 10 301 0.0 1.6 0.00 0.00 0.00 91 1018.5
20260506115517 10 344 0.0 1.6 0.00 0.00 0.00 91 1018.5
20260506115017 10 50 0.0 3.2 0.00 0.00 0.00 91 1018.4
20260506114517 10 303 1.6 6.4 0.00 0.00 0.00 91 1018.4
20260506114017 10 277 0.0 1.6 0.00 0.00 0.00 90 1018.4
20260506113517 10 323 0.0 3.2 0.00 0.00 0.00 90 1018.3
20260506113037 10 332 0.0 1.6 0.00 0.00 0.00 90 1018.3
20260506112517 10 342 0.0 1.6 0.00 0.00 0.00 90 1018.3
20260506112017 10 307 0.0 1.6 0.00 0.00 0.00 90 1018.3
20260506111517 11 323 0.0 1.6 0.00 0.00 0.00 89 1018.3
20260506111017 11 8 0.0 1.6 0.00 0.00 0.00 89 1018.2
20260506110518 11 27 1.6 3.2 0.00 0.00 0.00 90 1018.1
20260506110017 11 10 1.6 3.2 0.00 0.00 0.00 90 1018.1
20260506105517 11 354 0.0 4.8 0.00 0.00 0.00 90 1018.2
20260506105017 11 8 1.6 1.6 0.00 0.00 0.00 90 1018.1
20260506104518 11 360 1.6 4.8 0.00 0.00 0.00 89 1018.1
20260506104018 11 353 0.0 1.6 0.00 0.00 0.00 89 1018.1
20260506103517 11 319 0.0 1.6 0.00 0.00 0.00 89 1018.1
20260506103018 11 330 0.0 6.4 0.00 0.00 0.00 88 1018.1
20260506102518 11 322 0.0 3.2 0.00 0.00 0.00 88 1018.1
20260506102018 11 349 0.0 3.2 0.00 0.00 0.00 88 1018.1
20260506101538 11 350 0.0 3.2 0.00 0.00 0.00 88 1018.1
20260506101038 11 312 0.0 1.6 0.00 0.00 0.00 88 1018.1
20260506100518 11 293 0.0 1.6 0.00 0.00 0.00 88 1018.0
20260506100018 11 295 1.6 3.2 0.00 0.00 0.00 88 1018.0
20260506095519 11 310 0.0 1.6 0.00 0.00 0.00 88 1017.9
20260506095018 11 307 0.0 1.6 0.00 0.00 0.00 88 1017.9
20260506094519 11 293 1.6 3.2 0.00 0.00 0.00 88 1017.8
20260506094018 11 289 1.6 3.2 0.00 0.00 0.00 89 1017.8
20260506093518 11 311 0.0 1.6 0.00 0.00 0.00 89 1017.9
20260506093036 11 316 0.0 1.6 0.00 0.00 0.00 88 1017.8
20260506092516 11 322 0.0 1.6 0.00 0.00 0.00 88 1017.8
20260506092016 11 302 0.0 3.2 0.00 0.00 0.00 88 1017.8
20260506091518 11 323 0.0 3.2 0.00 0.00 0.00 88 1017.7
20260506091016 11 320 0.0 1.6 0.00 0.00 0.00 88 1017.7
20260506090536 11 327 0.0 3.2 0.00 0.00 0.00 87 1017.6
20260506090016 11 325 0.0 3.2 0.00 0.00 0.00 87 1017.6
20260506085516 11 323 0.0 1.6 0.00 0.00 0.00 87 1017.6
20260506085016 12 271 0.0 1.6 0.00 0.00 0.00 87 1017.7
20260506084517 12 293 0.0 1.6 0.00 0.00 0.00 86 1017.8
20260506084016 12 312 0.0 3.2 0.00 0.00 0.00 86 1017.9
20260506083516 12 312 0.0 3.2 0.00 0.00 0.00 86 1018.1
20260506083017 12 287 0.0 1.6 0.00 0.00 0.00 85 1018.1
20260506082517 12 297 1.6 1.6 0.00 0.00 0.00 85 1018.1
20260506082017 12 306 1.6 3.2 0.00 0.00 0.00 84 1018.1
20260506081517 12 295 1.6 3.2 0.00 0.00 0.00 84 1018.0
20260506081017 13 289 1.6 3.2 0.00 0.00 0.00 83 1018.0
20260506080517 13 298 1.6 3.2 0.00 0.00 0.00 83 1017.9
20260506073517 13 294 1.6 3.2 0.00 0.00 0.00 82 1017.7
20260506073018 12 297 1.6 3.2 0.00 0.00 0.00 83 1017.7
20260506072517 12 315 0.0 3.2 0.00 0.00 0.00 83 1017.7
20260506072018 13 301 1.6 3.2 0.00 0.00 0.00 82 1017.6
20260506071518 12 304 1.6 3.2 0.00 0.00 0.00 82 1017.5
20260506071018 12 322 1.6 3.2 0.00 0.00 0.00 82 1017.6
20260506070518 12 307 0.0 1.6 0.00 0.00 0.00 82 1017.5
20260506062018 13 322 0.0 3.2 0.00 0.00 0.00 79 1016.9
20260506061518 13 314 0.0 1.6 0.00 0.00 0.00 79 1017.0
20260506061018 13 318 0.0 1.6 0.00 0.00 0.00 79 1016.9
20260506060518 13 314 0.0 1.6 0.00 0.00 0.00 78 1016.9
20260506051016 15 293 1.6 3.2 0.00 0.00 0.00 75 1016.7
20260506050536 15 291 1.6 3.2 0.00 0.00 0.00 75 1016.7
20260506045016 15 294 1.6 3.2 0.00 0.00 0.00 75 1016.5
20260506044556 14 295 1.6 3.2 0.00 0.00 0.00 76 1016.5
20260506044016 14 324 0.0 3.2 0.00 0.00 0.00 76 1016.4
20260506043517 15 308 0.0 1.6 0.00 0.00 0.00 76 1016.4
20260506043017 15 319 0.0 3.2 0.00 0.00 0.00 75 1016.4
20260506042517 15 329 0.0 3.2 0.00 0.00 0.00 75 1016.3
20260506042037 15 345 0.0 1.6 0.00 0.00 0.00 75 1016.2
20260506041516 15 343 0.0 3.2 0.00 0.00 0.00 74 1016.1
20260506041017 15 289 0.0 1.6 0.00 0.00 0.00 73 1016.0
20260506040516 15 327 0.0 1.6 0.00 0.00 0.00 72 1015.9
20260506040017 15 304 1.6 3.2 0.00 0.00 0.00 72 1015.8
20260506035517 15 314 1.6 3.2 0.00 0.00 0.00 72 1015.8
20260506035017 15 323 0.0 3.2 0.00 0.00 0.00 72 1015.7
20260506034537 16 333 0.0 1.6 0.00 0.00 0.00 71 1015.7
20260506034017 16 335 0.0 1.6 0.00 0.00 0.00 70 1015.6
20260506033517 16 318 0.0 1.6 0.00 0.00 0.00 70 1015.5
20260506033017 16 314 0.0 1.6 0.00 0.00 0.00 69 1015.4
20260506032557 16 312 0.0 1.6 0.00 0.00 0.00 68 1015.4
20260506032017 17 357 0.0 1.6 0.00 0.00 0.00 67 1015.3
20260506031517 17 320 0.0 1.6 0.00 0.00 0.00 66 1015.2
20260506031057 17 326 0.0 1.6 0.00 0.00 0.00 65 1015.2
20260506030518 17 324 0.0 3.2 0.00 0.00 0.00 65 1015.2
20260506030018 17 309 0.0 3.2 0.00 0.00 0.00 64 1015.2
20260506025538 18 305 1.6 4.8 0.00 0.00 0.00 63 1015.1
20260506025018 18 302 0.0 3.2 0.00 0.00 0.00 63 1015.0
20260506024518 18 276 1.6 3.2 0.00 0.00 0.00 62 1015.0
20260506024018 18 298 1.6 6.4 0.00 0.00 0.00 61 1014.9
20260506023518 18 278 3.2 9.7 0.00 0.00 0.00 61 1014.8
20260506023018 18 270 1.6 3.2 0.00 0.00 0.00 61 1014.8
20260506022518 18 275 1.6 6.4 0.00 0.00 0.00 60 1014.8
20260506022018 18 275 1.6 4.8 0.00 0.00 0.00 60 1014.7
20260506021518 18 274 3.2 8.0 0.00 0.00 0.00 60 1014.7
20260506021019 18 278 3.2 8.0 0.00 0.00 0.00 60 1014.6
20260506020516 19 280 3.2 8.0 0.00 0.03 0.00 60 1014.6
20260506020016 19 276 3.2 6.4 0.00 0.03 0.00 59 1014.6
20260506015516 20 278 3.2 6.4 0.00 0.03 0.00 58 1014.5
20260506015016 20 286 1.6 6.4 0.00 0.03 0.00 57 1014.5
20260506014536 20 280 3.2 8.0 0.00 0.03 0.00 58 1014.5
20260506014016 20 284 3.2 9.7 0.00 0.03 0.00 58 1014.4
20260506013516 20 281 3.2 6.4 0.00 0.03 0.00 57 1014.5
20260506013016 20 286 1.6 3.2 0.00 0.03 0.00 57 1014.6
20260506012516 20 292 1.6 6.4 0.00 0.03 0.00 57 1014.5
20260506012016 19 284 3.2 6.4 0.00 0.03 0.00 58 1014.5
20260506011516 19 276 3.2 6.4 0.00 0.03 0.00 58 1014.6
20260506011016 19 279 3.2 6.4 0.00 0.03 0.00 58 1014.6
20260506010518 20 283 1.6 6.4 0.00 0.03 0.00 58 1014.7
20260506010017 20 289 1.6 8.0 0.00 0.03 0.00 58 1014.6
20260506005516 20 295 1.6 9.7 0.00 0.03 0.00 57 1014.6
20260506005016 20 309 1.6 4.8 0.00 0.03 0.00 57 1014.6
20260506004516 20 302 1.6 8.0 0.00 0.03 0.00 56 1014.6
20260506004017 21 295 3.2 8.0 0.00 0.03 0.00 54 1014.5
20260506003517 21 281 1.6 6.4 0.00 0.03 0.00 53 1014.4
20260506003036 20 279 3.2 6.4 0.00 0.03 0.00 54 1014.4
20260506002517 20 343 3.2 8.0 0.00 0.03 0.00 55 1014.5
20260506002040 20 285 3.2 4.8 0.00 0.03 0.00 55 1014.5
20260506001517 20 290 3.2 8.0 0.00 0.03 0.00 55 1014.5
20260506001017 20 294 3.2 6.4 0.00 0.03 0.00 55 1014.5
20260506000517 20 282 3.2 6.4 0.00 0.03 0.00 55 1014.5
20260506000017 21 289 3.2 8.0 0.00 0.03 0.00 53 1014.5
20260505235517 21 304 3.2 8.0 0.00 0.03 0.00 52 1014.4
20260505235018 21 274 3.2 9.7 0.00 0.03 0.00 52 1014.3
20260505234518 21 298 3.2 11.3 0.00 0.03 0.00 54 1014.4
20260505234018 21 291 4.8 11.3 0.00 0.03 0.00 54 1014.5
20260505233518 21 248 3.2 9.7 0.00 0.03 0.00 53 1014.3
20260505233018 21 289 4.8 11.3 0.00 0.03 0.00 54 1014.4
20260505232517 21 284 4.8 11.3 0.00 0.03 0.00 53 1014.3
20260505232018 20 252 4.8 9.7 0.00 0.03 0.00 52 1014.3
20260505231518 20 282 4.8 12.9 0.00 0.03 0.00 53 1014.3
20260505231018 20 288 4.8 12.9 0.00 0.03 0.00 53 1014.3
20260505230518 20 262 3.2 8.0 0.00 0.03 0.00 53 1014.3
20260505230018 20 283 3.2 11.3 0.00 0.03 0.00 55 1014.6
20260505225518 20 301 3.2 11.3 0.00 0.03 0.00 54 1014.5
20260505225018 20 283 4.8 12.9 0.00 0.03 0.00 54 1014.4
20260505224518 20 289 4.8 16.1 0.00 0.03 0.00 55 1014.4
20260505224019 20 285 4.8 8.0 0.00 0.03 0.00 56 1014.6
20260505223519 20 286 4.8 14.5 0.00 0.03 0.00 55 1014.5
20260505223019 21 290 4.8 14.5 0.00 0.03 0.00 54 1014.7
20260505222538 21 280 3.2 8.0 0.00 0.03 0.00 54 1014.5
20260505222016 20 265 3.2 11.3 0.00 0.03 0.00 55 1014.5
20260505221536 20 297 4.8 9.7 0.00 0.03 0.00 55 1014.6
20260505221016 20 292 3.2 9.7 0.00 0.03 0.00 54 1014.5
20260505220516 20 286 4.8 12.9 0.00 0.03 0.00 55 1014.5
20260505220016 20 284 4.8 12.9 0.00 0.03 0.00 55 1014.5
20260505215559 20 302 4.8 11.3 0.00 0.03 0.00 56 1014.5
20260505215019 19 285 6.4 11.3 0.00 0.03 0.00 57 1014.7
20260505214556 19 286 3.2 11.3 0.00 0.03 0.00 56 1014.7
20260505214016 19 278 4.8 11.3 0.00 0.03 0.00 58 1014.8
20260505213516 19 283 4.8 9.7 0.00 0.03 0.00 56 1015.0
20260505213017 18 284 3.2 11.3 0.00 0.03 0.00 58 1014.9
20260505212517 18 279 3.2 9.7 0.00 0.03 0.00 58 1015.1
20260505212037 19 282 3.2 9.7 0.00 0.03 0.00 57 1015.1
20260505211516 19 282 4.8 11.3 0.00 0.03 0.00 56 1014.9
20260505211017 19 282 4.8 9.7 0.00 0.03 0.00 56 1014.6
20260505210517 18 283 4.8 9.7 0.00 0.03 0.00 58 1014.7
20260505210017 19 277 4.8 12.9 0.00 0.03 0.00 58 1015.0
20260505205517 19 274 3.2 8.0 0.00 0.03 0.00 57 1015.0
20260505205017 20 299 3.2 11.3 0.00 0.03 0.00 54 1014.9
20260505204517 20 275 4.8 11.3 0.00 0.03 0.00 54 1014.7
20260505204017 20 283 4.8 11.3 0.00 0.03 0.00 56 1015.0
20260505203517 20 293 3.2 9.7 0.00 0.03 0.00 53 1014.8
20260505203017 20 271 3.2 9.7 0.00 0.03 0.00 55 1014.8
20260505202517 19 279 3.2 12.9 0.00 0.03 0.00 56 1014.8
20260505202017 19 295 4.8 9.7 0.00 0.03 0.00 57 1014.9
20260505201518 19 289 4.8 11.3 0.00 0.03 0.00 56 1015.2
20260505201017 20 292 3.2 8.0 0.00 0.03 0.00 55 1014.8
20260505200518 19 291 4.8 9.7 0.00 0.03 0.00 56 1014.8
20260505200018 18 279 4.8 11.3 0.00 0.03 0.00 57 1014.8
20260505195518 19 285 4.8 11.3 0.00 0.03 0.00 57 1015.1
20260505195017 19 295 4.8 16.1 0.00 0.03 0.00 57 1014.8
20260505194518 19 283 4.8 14.5 0.00 0.03 0.00 57 1014.8
20260505194018 18 289 4.8 12.9 0.00 0.03 0.00 58 1014.9
20260505193518 18 284 4.8 12.9 0.00 0.03 0.00 57 1014.9
20260505193018 18 285 3.2 6.4 0.00 0.03 0.00 57 1015.1
20260505192518 18 284 3.2 14.5 0.00 0.03 0.00 57 1015.2
20260505192018 18 280 3.2 8.0 0.00 0.03 0.00 57 1015.2
20260505191518 18 280 4.8 9.7 0.00 0.03 0.00 57 1015.2
20260505191018 18 279 4.8 11.3 0.00 0.03 0.00 57 1015.0
20260505190518 18 303 1.6 6.4 0.00 0.03 0.00 57 1015.2
20260505190019 18 296 3.2 12.9 0.00 0.03 0.00 57 1015.2
20260505185519 18 279 1.6 6.4 0.00 0.03 0.00 58 1015.0
20260505185019 18 285 3.2 9.7 0.00 0.03 0.00 59 1015.1
20260505184516 18 283 4.8 12.9 0.00 0.03 0.00 59 1015.0
20260505184019 18 288 3.2 9.7 0.00 0.03 0.00 59 1015.1
20260505183519 17 296 3.2 6.4 0.00 0.03 0.00 59 1015.3
20260505183016 17 274 3.2 8.0 0.00 0.03 0.00 58 1015.2
20260505182516 17 275 3.2 9.7 0.00 0.03 0.00 59 1015.1
20260505182016 17 282 4.8 12.9 0.00 0.03 0.00 59 1015.0
20260505181516 17 281 3.2 9.7 0.00 0.03 0.00 60 1014.9
20260505181016 17 288 4.8 9.7 0.00 0.03 0.00 61 1015.1
20260505180516 17 291 3.2 9.7 0.00 0.03 0.00 61 1015.1
20260505180016 17 280 3.2 11.3 0.00 0.03 0.00 62 1015.2
20260505175516 16 292 3.2 9.7 0.00 0.03 0.00 63 1014.9
20260505175019 16 276 4.8 14.5 0.00 0.03 0.00 63 1014.9
20260505174517 16 281 4.8 8.0 0.00 0.03 0.00 64 1014.8
20260505174037 16 285 4.8 11.3 0.00 0.03 0.00 64 1014.6
20260505173517 16 281 4.8 9.7 0.00 0.03 0.00 66 1014.6
20260505173017 15 280 3.2 8.0 0.00 0.03 0.00 67 1014.6
20260505172517 15 285 4.8 11.3 0.00 0.03 0.00 68 1014.8
20260505172016 15 291 4.8 11.3 0.00 0.03 0.00 69 1014.9
20260505171517 15 275 4.8 9.7 0.00 0.03 0.00 69 1014.8
20260505171017 15 282 4.8 12.9 0.00 0.03 0.00 70 1014.8
20260505170537 14 282 3.2 11.3 0.00 0.03 0.00 71 1014.8
20260505170017 14 277 3.2 8.0 0.00 0.03 0.00 71 1015.0
20260505165537 14 288 3.2 8.0 0.00 0.03 0.00 72 1015.0
20260505165017 14 324 1.6 6.4 0.00 0.03 0.00 73 1014.8
20260505164517 13 281 3.2 6.4 0.00 0.03 0.00 73 1014.8
20260505164017 13 295 3.2 6.4 0.00 0.03 0.00 74 1014.7
20260505163550 13 311 3.2 6.4 0.00 0.03 0.00 74 1014.7
20260505163029 13 293 4.8 8.0 0.00 0.03 0.00 74 1014.7
20260505162517 13 283 3.2 9.7 0.00 0.03 0.00 74 1014.6
20260505162030 13 298 3.2 6.4 0.00 0.03 0.00 75 1014.6
20260505161518 13 291 4.8 8.0 0.00 0.03 0.00 75 1014.6
20260505161050 13 303 3.2 6.4 0.00 0.03 0.00 75 1014.6
20260505160530 13 296 3.2 6.4 0.00 0.03 0.00 75 1014.5
20260505153045 12 306 3.2 4.8 0.00 0.03 0.00 78 1014.6
20260505152530 12 297 1.6 4.8 0.00 0.03 0.00 78 1014.5
20260505152030 12 303 1.6 4.8 0.00 0.03 0.00 79 1014.5
20260505151531 12 277 1.6 6.4 0.00 0.03 0.00 79 1014.5
20260505151030 12 289 1.6 3.2 0.00 0.03 0.00 79 1014.5
20260505150530 12 292 1.6 6.4 0.00 0.03 0.00 79 1014.5
20260505140536 11 288 1.6 4.8 0.00 0.03 0.00 81 1014.0